Orbital Elements at Epoch 2459000.5 (2020-May-31.0) TDB
Reference: JPL 18 (heliocentric ecliptic J2000)
Element | Value | Uncertainty (1-sigma) | Units |
e | .1136582164432243 | 5.3158e-08 | |
a | 3.20856433959761 | 2.99e-08 | au |
q | 2.843884639415614 | 1.8406e-07 | au |
i | 32.41504015664574 | 5.7169e-06 | deg |
node | 160.6071055376751 | 9.3238e-06 | deg |
peri | 291.8166613946941 | 2.7995e-05 | deg |
M | 288.8680267671941 | 2.8224e-05 | deg |
tp | 2459415.288694826789 (2021-Jul-19.78869483) | 0.0001661 | TDB |
period | 2099.251902501364 5.75 | 2.9343e-05 8.034e-08 | d yr |
n | .1714896623749831 | 2.3971e-09 | deg/d |
Q | 3.573244039779607 | 3.3298e-08 | au |
|
| | Orbit Determination Parameters
Additional Information
|